Tracking 28902 objects as of 19-May-2024
HD Live streaming from Space Station
objects crossing your sky now

ION SCV-010

Track ION SCV-010 now!
10-day predictions
ION SCV-010 is classified as:


NORAD ID: 56192
Int'l Code: 2023-054Q
Perigee: 542.2 km
Apogee: 561.0 km
Inclination: 97.5 °
Period: 95.5 minutes
Semi major axis: 6922 km
RCS: Unknown
Launch date: April 15, 2023
Source: Italy (IT)
Launch site: AIR FORCE WESTERN TEST RANGE (AFWTR)

Uplink (MHz):
Downlink (MHz): 401.415
Beacon (MHz):
Mode: 1200bps FSK
Call sign:
Status: Active

Your satellite tracking list
Your tracking list is empty




NASA's NSSDC Master Catalog

Two Line Element Set (TLE):
1 56192U 23054Q   24139.59072712  .00007352  00000-0  48987-3 0  9995
2 56192  97.4722  29.1213 0013587 177.9969 182.1316 15.07303199 60743
Source of the keplerian elements: AFSPC